Simultaneous Nadir Overpasses (SNOs) Predictions

Prediction of SNOs between FY3D and AQUA Satellite Orbit:

Table of predicted SNOs for the next 14.0 days since TLE Epoch: 5/2/2020
Index Date (FY3D) Time (FY3D) Lat,Lon (FY3D) SZA (FY3D ) Date (AQUA) Time (AQUA) Lat,Lon (AQUA) SZA (AQUA ) Distance(km) Time Diff (sec)
1 05/03/2020 21:14:32 -64.82, -97.13 86.87 05/03/2020 21:15:16 -64.83, -97.11 86.93 0.91 44
2 05/03/2020 22:04:04 68.70, 74.60 89.15 05/03/2020 22:03:32 68.71, 74.65 89.17 1.95 32
3 05/06/2020 13:30:59 -64.59, 18.56 87.38 05/06/2020 13:31:47 -64.60, 18.56 87.44 0.22 48
4 05/06/2020 14:20:28 68.64,-169.58 88.47 05/06/2020 14:20:00 68.64,-169.56 88.49 0.97 28
5 05/09/2020 05:47:25 -64.47, 134.35 87.96 05/09/2020 05:48:17 -64.47, 134.33 88.01 0.81 52
6 05/09/2020 06:36:52 68.62, -53.69 87.78 05/09/2020 06:36:28 68.62, -53.70 87.81 0.33 24
7 05/11/2020 22:03:49 -64.46,-109.76 88.61 05/11/2020 22:04:45 -64.45,-109.80 88.66 2.14 56
8 05/11/2020 22:53:14 68.71, 62.34 87.01 05/11/2020 22:52:54 68.71, 62.30 87.05 1.85 20
9 05/14/2020 14:20:34 -63.28, 5.09 88.05 05/14/2020 14:21:33 -63.28, 5.10 88.12 0.71 59
10 05/14/2020 15:09:54 67.83, 177.11 87.30 05/14/2020 15:09:37 67.84, 177.14 87.31 1.28 17




NCC Satellite Simultaneous Nadir Overpasses (SNOs) Prediction Service
